Regional Weather Roundup
Issued by NWS

Home | Current Version | Previous Version | Text Only | Print | Product List | Glossary Off
Versions: 1 2 3 4 5 6 7 8 9 10 11 12 13 14 15 16 17 18 19 20 21 22 23 24 25 26 27 28 29 30 31 32 33 34 35 36 37 38 39 40 41 42 43 44 45 46 47 48 49 50

034
ASUS43 KDMX 241206
RWRIA

WEATHER ROUNDUP FOR IOWA
NATIONAL WEATHER SERVICE DES MOINES IA
600 AM CST SAT FEB 24 2018

NOTE: "FAIR" INDICATES FEW OR NO CLOUDS BELOW 12,000 FEET WITH NO
SIGNIFICANT WEATHER AND/OR OBSTRUCTIONS TO VISIBILITY.

* - THESE STATIONS ARE NOT NWS STATIONS...THUS NOT UNDER NWS
QUALITY CONTROL.  THEY ALSO DO NOT REPORT WEATHER SUCH
AS PRECIPITATION OR FOG.

IAZ001>003-012>014-020>022-031>034-043>046-241300-
   NORTHWEST IOWA

CITY           SKY/WX    TMP DP  RH WIND       PRES   REMARKS
CARROLL *      CLOUDY    18  18 100 NE8       30.05S FOG     WCI   7
CHEROKEE *     CLOUDY    17  17 100 NE3       30.07F
DENISON *      CLOUDY    21  19  93 E7G15     30.05F WCI  13
LE MARS *      CLOUDY    18  18 100 E9        30.05F FOG     WCI   6
ORANGE CITY *  CLOUDY    18  18 100 E5        30.04F FOG     WCI  11
SHELDON *      FOG       14  14 100 E9        30.04F VSB 1   WCI   2
SIOUX CITY     CLOUDY    21  20  96 E9        30.05F WCI  11
6HR MIN TEMP:  18; 6HR MAX TEMP:  22;

SPENCER        FRZ RAIN  16  11  80 NE9       30.08F VSB 1/2 WCI   4
6HR MIN TEMP:  15; 6HR MAX TEMP:  20; 6HR PCP: TRACE;

STORM LAKE *   FOG       16  14  93 E20G25    30.04S VSB 1/4 WCI  -1
$$

IAZ055>058-069>071-079>083-090>094-241300-
   SOUTHWEST IOWA

CITY           SKY/WX    TMP DP  RH WIND       PRES   REMARKS
ATLANTIC *     CLOUDY    25  23  93 NE12      30.01F WCI  14
AUDUBON *      CLOUDY    23  19  86 CALM      30.03F
CLARINDA *       N/A     28  27  93 E10G17    30.03F WCI  19
COUNCIL BLFS * MIX PCPN  25  25 100 E12       30.00F WCI  14
CRESTON *      MIX PCPN  27  25  93 E16       30.02F WCI  14
HARLAN  *      CLOUDY    23  23 100 E10       30.05F WCI  12
LAMONI         MIX PCPN  28  25  88 E10G20    30.01F FOG     WCI  19
6HR MIN TEMP:  25; 6HR MAX TEMP:  28; 6HR PCP:  0.03;

RED OAK *      CLOUDY    27  25  93 E9G16     30.01F WCI  17
SHENANDOAH *   CLOUDY    27  27 100 E6G12     30.04R FOG     WCI  20
$$

IAZ047>049-059>061-072>074-084-241300-
   CENTRAL IOWA

CITY           SKY/WX    TMP DP  RH WIND       PRES   REMARKS
AMES           CLOUDY    23  19  85 E7        30.09F WCI  15
6HR MIN TEMP:  21; 6HR MAX TEMP:  23;

ANKENY *       CLOUDY    25  21  86 E7        30.11S WCI  17
BOONE *        MOCLDY    21  21 100 E7        30.06F FOG     WCI  13
CHARITON *     CLOUDY    27  25  93 E12       30.06F WCI  16
DES MOINES     CLOUDY    25  21  85 NE10      30.07F WCI  15
6HR MIN TEMP:  23; 6HR MAX TEMP:  26;

GRINNELL*      CLOUDY    26  24  91 E14       30.10F WCI  14
KNOXVILLE *    CLOUDY    28  23  80 E7G14     30.08R WCI  21
MARSHALLTOWN   CLOUDY    23  21  92 E13       30.09F FOG     WCI  11
6HR MIN TEMP:  22; 6HR MAX TEMP:  24;

NEWTON *       CLOUDY    25  25 100 E15       30.08F WCI  12
PELLA *        CLOUDY    28  24  86 E6        30.10F WCI  21
PERRY *        CLOUDY    23  22  96 E12       30.06F WCI  12
$$

IAZ004>006-015-016-023>025-035-036-241300-
   NORTH CENTRAL IOWA

CITY           SKY/WX    TMP DP  RH WIND       PRES   REMARKS
ALGONA *       FOG       10 N/A N/A N8        30.07F VSB 3/4 WCI  -1
CLARION *      CLOUDY    16  16 100 E13       30.07F WCI   2
ESTHERVILLE    FOG       10   8  92 NE7       30.09F VSB 1/4 WCI  -1
6HR MIN TEMP:   8; 6HR MAX TEMP:  15;

FORT DODGE *   SNOW      12  10  92 NE8       30.08F VSB 1/2 WCI   0
MASON CITY     CLOUDY     9   6  88 NE8       30.11F FOG     WCI  -3
6HR MIN TEMP:   9; 6HR MAX TEMP:  17;

FOREST CITY *  FAIR     N/A N/A N/A CALM      30.09F
WEBSTER CITY * CLOUDY     9   5  85 NE3       30.07F
IOWA FALLS *   FAIR      21  19  93 E10       30.09S WCI  10
$$

IAZ007>011-017>019-026>030-037>042-050>054-066-241300-
   NORTHEAST IOWA

CITY           SKY/WX    TMP DP  RH WIND       PRES   REMARKS
CEDAR RAPIDS   CLOUDY    29  24  82 E12       30.11F HAZE    WCI  19
6HR MIN TEMP:  24; 6HR MAX TEMP:  29;

CHARLES CITY * MOCLDY    21  21 100 NE10      30.11F FOG     WCI  10
CLINTON *      CLOUDY    30  27  88 E14       30.15S WCI  19
DECORAH *      FAIR      19  19 100 NE6       30.13F FOG     WCI  11
DUBUQUE        CLOUDY    26  22  84 E14       30.14R WCI  14
6HR MIN TEMP:  23; 6HR MAX TEMP:  26;

MONTICELLO *   CLOUDY    28  25  86 E8        30.14S WCI  20
OELWEIN *      FAIR      23  23 100 E15       30.10F WCI  10
WATERLOO       FAIR      21  20  96 E8        30.13S FOG     WCI  11
6HR MIN TEMP:  20; 6HR MAX TEMP:  22;

$$

IAZ064-065-067-068-078-241300-
   EAST CENTRAL IOWA

CITY           SKY/WX    TMP DP  RH WIND       PRES   REMARKS
DAVENPORT      CLOUDY    31  26  82 E10       30.16S WCI  22
6HR MIN TEMP:  28; 6HR MAX TEMP:  31;

IOWA CITY      CLOUDY    30  24  78 E9        30.15F WCI  22
6HR MIN TEMP:  27; 6HR MAX TEMP:  30;

MT. PLEASANT * MIX PCPN  30  28  93 E12       30.12R WCI  21
MUSCATINE *    MIX PCPN  30  27  86 NE10      30.13F WCI  21
QUAD CITIES    CLOUDY    32  27  81 NE9       30.14F WCI  24
6HR MIN TEMP:  30; 6HR MAX TEMP:  32;

$$

IAZ062-063-075>077-085>089-095>099-241300-
   SOUTHEAST IOWA

CITY           SKY/WX    TMP DP  RH WIND       PRES   REMARKS
BURLINGTON     CLOUDY    31  27  85 E10       30.10F WCI  22
6HR MIN TEMP:  30; 6HR MAX TEMP:  31; 6HR PCP:  0.02;

FAIRFIELD *    CLOUDY    30  27  86 E13       30.10S WCI  20
FORT MADISON * CLOUDY    30  30 100 E10       30.12R WCI  21
KEOKUK *       CLOUDY    32  30  93 NE9       30.10S FOG     WCI  24
OSKALOOSA *    MIX PCPN  28  26  91 E12       30.09F WCI  18
OTTUMWA        FRZ RAIN  29  25  85 E12       30.08F FOG     WCI  19
6HR MIN TEMP:  27; 6HR MAX TEMP:  29; 6HR PCP: TRACE;

WASHINGTON *   CLOUDY    30  30 100 E13       30.12F WCI  20
$$

ABBREVIATIONS USED IN REMARKS
   TC - TEMPERATURES IN CELSIUS
  WCI - WIND CHILL INDEX
   HX - HEAT INDEX
  VSB - VISIBILITY
$$





USA.gov is the U.S. government's official web portal to all federal, state and local government web resources and services.